Location: Anywhere
(41.5000°N, 71.4000°W)
Time: 18:26:30
(UTC-04:00)

X-37B - Visible Passes

Search period start: 30 September 2022 00:00
Search period end: 10 October 2022 00:00
Orbit: 329 x 342 km, 45.0° (Epoch: 29 September)

Date Brightness Start Highest point End Pass type
(mag) Time Alt. Az. Time Alt. Az. Time Alt. Az.
30 Sep 1.3 05:15:44 33° NNW 05:16:19 38° N 05:19:03 10° ENE visible
01 Oct 1.2 05:35:21 21° NW 05:36:55 44° N 05:39:43 10° E visible
02 Oct 3.6 04:23:46 15° ENE 04:23:46 15° ENE 04:24:29 10° ENE visible
02 Oct 0.5 05:55:00 13° WNW 05:57:27 71° NNE 06:00:21 10° ESE visible
03 Oct 2.5 04:43:28 28° ENE 04:43:28 28° ENE 04:45:08 10° E visible
03 Oct 0.6 06:15:04 10° WNW 06:17:54 53° SSW 06:20:43 10° SE visible
04 Oct 0.8 05:03:15 59° ENE 05:03:15 59° ENE 05:05:46 10° ESE visible
05 Oct 0.4 05:23:08 52° SW 05:23:19 54° SSW 05:26:08 10° SE visible
06 Oct 1.8 05:43:09 21° SW 05:43:36 22° SSW 05:45:56 10° SSE visible
